Powrót do katalogu

ARIANE 5 DEB

AktywnyHEO
NORAD 43382·DEBRIS·🇫🇷 France

Wystrzelony Jun 12, 2008 z Guiana Space Centre

Loading…

Następne Przeloty (najbliższe 24 godziny)

TLE

ŚwieżeSource: Space-Track

Epoka: Sep 14, 2026, 04:53 UTC

1 43382U 08030E   26257.20414889  .00001232  00000-0  71350-3 0  9996
2 43382   2.0317 325.0289 7037795 348.9505   1.5339  2.56638459115675

Śledź ARIANE 5 DEB w czasie rzeczywistym z AllMySat

Download on the App Store